Regional Weather Roundup
Issued by NWS Wakefield, VA

Home | Current Version | Previous Version | Graphics & Text | Print | Product List | Glossary On
Versions: 1 2 3 4 5 6 7 8 9 10 11 12 13 14 15 16 17 18 19 20 21 22 23 24 25 26 27
000
ASUS41 KAKQ 230015
RWRAKQ

REGIONAL WEATHER ROUNDUP
NATIONAL WEATHER SERVICE WAKEFIELD VA
800 PM EDT FRI JUL 22 2016

Note: "fair" indicates few or no clouds below 12,000 feet with no
significant weather and/or obstructions to visibility. * = Denotes
station may not report precipitation (e.g., rain,snow,etc.),
thunder or fog.

VAZ042-051-052>054-056-230100-
NORTHERN VIRGINIA

CITY           SKY/WX    TMP DP  RH WIND       PRES   REMARKS
WASH NATIONAL  CLOUDY    89  71  55 S12       29.90S HX  95
DULLES         MOCLDY    88  71  57 SW7       29.92S
FORT BELVOIR   FAIR      87  72  61 VRB3      29.91S
QUANTICO       FAIR      88  70  55 SW5       29.92S
FREDERICKSBRG*   N/A     87  71  58 SW3       29.92R
STAFFORD*      FAIR      85  69  59 CALM      29.97S
WARRENTON      FAIR      84  68  58 S3        29.92F
CULPEPER*      FAIR      85  76  73 SW3       29.93S
MANASSAS*      CLEAR     88  72  58 SW5       29.92S
LEESBURG*      FAIR      88  77  70 SW3       29.93S HX 100
WINCHESTER     FAIR      86  66  51 W7        29.94S
FRONT ROYAL*   FAIR      86  72  62 W3        29.93S
LURAY*         FAIR      86  73  66 SW5       29.96S
$$

VAZ048-049-060>072-079>083-230100-
CENTRAL AND SOUTH CENTRAL VIRGINIA

CITY           SKY/WX    TMP DP  RH WIND       PRES   REMARKS
RICHMOND       FAIR      85  75  72 S6        29.93S
CHESTERFIELD*  FAIR      88  64  45 S5        29.95S
PETERSBURG*    FAIR      84  79  85 CALM      29.95S HX  95
HANOVER        FAIR      82  71  69 CALM      29.95S
TAPPAHANNOCK*  FAIR      87  72  59 S5        29.93S
QUINTON*       FAIR      86  74  68 CALM      29.93R
CHARLOTTSVILLE FAIR      87  71  58 CALM      29.95S
GORDONSVILLE*  FAIR      85  74  70 CALM      29.94S
ORANGE*          N/A     86  72  62 CALM      29.96S
LOUISA*        FAIR      88  77  70 CALM      29.94S HX 100
BUMPASS*       FAIR      83  76  79 CALM      29.94S
FARMVILLE*     NOT AVBL
CREWE*         FAIR      86  74  68 CALM      29.95S
FORT PICKETT*  FAIR      84  77  79 S6        29.96S
CHASE CITY*    FAIR      87  77  73 CALM      29.96S HX  98
CLARKSVILLE*   FAIR      84  77  79 CALM      29.96S
SOUTH HILL*    FAIR      84  75  73 S5        30.02S
LAWRENCEVILLE* FAIR      84  77  78 S3        29.96S
EMPORIA*       FAIR      84  73  70 CALM      29.97S
$$

VAZ088>098-230100-
SOUTHEAST VIRGINIA

CITY           SKY/WX    TMP DP  RH WIND       PRES   REMARKS
NORFOLK        FAIR      88  72  58 S14       29.94R
VIRGINIA BEACH FAIR      91  71  51 SW10      29.94R HX  97
NORFOLK NAVAL  FAIR      87  72  60 SW8       29.96R
WEST POINT*    FAIR      87  74  65 CALM      29.94R
SALUDA*        FAIR      86  76  71 CALM      29.93R HX  97
NEWPORT NEWS   FAIR      86  75  69 SW10      29.94R HX  95
LANGLEY AFB    FAIR      87  74  65 S14       29.94R HX  96
FORT EUSTIS    FAIR      87  77  70 SW5       29.93R HX  99
WILLIAMSBURG*  FAIR      90  77  66 CALM      29.95R HX 102
HR EXEC AP*    FAIR      84  73  70 SW7       29.97R
FRANKLIN*      FAIR      85  74  69 S3        29.96R
US460-WAKEFLD  FAIR      85  75  72 S3        29.95R
$$

VAZ020-022-025-037-045-230100-
WEST CENTRAL AND SOUTHWEST VIRGINIA

CITY           SKY/WX    TMP DP  RH WIND       PRES   REMARKS
STAUNTON*      FAIR      82  70  68 CALM      30.01S
WAYNESBORO*    FAIR      80  65  61 W6        30.01S
HOT SPRINGS VA NOT AVBL
LYNCHBURG      FAIR      81  72  74 CALM      30.00R
DANVILLE       FAIR      86  73  65 S3        29.97S
SOUTH BOSTON*  FAIR      85  81  88 CALM      29.96S HX 100
MARTINSVILLE   FAIR      80  69  70 NW3       30.03R
ROANOKE        FAIR      85  67  54 VRB3      30.02S
BLACKSBURG     FAIR      78  70  76 CALM      30.11R
DUBLIN*        FAIR      81  70  70 CALM      30.10S
MARION*        FAIR      80  68  67 CALM      30.14R
HILLSVILLE*    FAIR      78  66  66 CALM      30.11S
RICHLANDS*     FAIR      78  67  69 NE3       30.13S
WISE*          FAIR      79  59  50 N3        30.15R
ABINGDON*      FAIR      84  65  51 CALM      30.09R
$$

MDZ021>025-VAZ099-100-230100-
SOUTHERN MARYLAND AND THE DELMARVA PENINSULA

CITY           SKY/WX    TMP DP  RH WIND       PRES   REMARKS
PATUXENT RIVER MOCLDY    88  68  51 W7        29.91R
BAY BRIDGE APT PTCLDY    88  72  58 SW5       29.89S
LEONARDTOWN    PTCLDY    86  70  58 SW3       29.94R
DOVER          CLEAR     86  73  64 S7        29.87S
GEORGETOWN     PTCLDY    85  74  69 SW7       29.91S
EASTON         PTCLDY    88  75  66 SW6       29.94R HX  97
CAMBRIDGE      CLEAR     84  73  70 CALM      29.91R
SALISBURY      MOCLDY    84  75  74 SW8       29.91S
OCEAN CITY     PTCLDY    82  75  79 SW15      29.91F
WALLOPS ISLAND FAIR      81  75  82 S15G23    29.94S
ACCOMACK*      FAIR      84  75  74 CALM      29.93S
$$

NCZ012>017-030>032-230100-
NORTH CENTRAL AND EASTERN NORTH CAROLINA

CITY           SKY/WX    TMP DP  RH WIND       PRES   REMARKS
ROANOKE RAPIDS FAIR      82  75  78 CALM      29.96S
RALEIGH        PTCLDY    83  71  67 SW7       29.99R
ELIZABETH CITY PTCLDY    84  72  67 S10       29.97S
AHOSKIE*       CLEAR     82  75  79 CALM      29.97S
EDENTON*       PTCLDY    85  72  64 S10       29.98S
CURRITUCK*     PTCLDY    86  72  62 S7        29.97S
KILL DEVIL HLS PTCLDY    84  68  57 SW6       29.97F
MANTEO           N/A     84  71  64 SW17      29.99S
CAPE HATTERAS  CLEAR     82  70  66 SW9       30.01S
TARBORO*       FAIR      85  74  68 CALM      29.98R
GOLDSBORO      CLEAR     87  72  61 S6        29.97S
WASHINGTON     CLEAR     84  72  67 S9        29.99R
GREENVILLE     CLEAR     86  73  66 S10       30.00R
NEW BERN       CLEAR     83  69  62 S7        30.01F
WILMINGTON     CLEAR     83  69  62 S5        30.01S
$$

VAZ048-230100-
ELSEWHERE

CITY           SKY/WX    TMP DP  RH WIND       PRES   REMARKS
HARRISBURG PA  PTCLDY    87  72  60 SW10      29.85S
BALTIMORE      MOCLDY    88  71  57 SW5       29.88S
ANNAPOLIS      PTCLDY    87  72  60 SW5       29.88F
ANDREWS AFB    FAIR      86  71  60 S10       29.90F
PHILADELPHIA   MOCLDY    89  72  56 SW16      29.85S HX  96
GREENSBORO     PTCLDY    83  67  58 SW8       30.01R
ROCKY MOUNT    CLEAR     84  74  71 S5        29.97F
$$

VAZ100-230100-
MARINE

STATION/POSITION TIME  TEMP    WIND        PRES    WAVE   SWELL
                       AIR SEA DIR/SP/G            HT/PER HT/PER
                 (UTC) (F)     (DEG/KT/KT) (MB)    (FT/S) (FT/S)
BRANDYWINE LGT   2300          230/ 15/ 16   N/A
CAPE MAY NJ      2306      75  210/  9/ 14   N/A
LEWES DE         2306      72  240/ 10/ 15   N/A
OCEAN-CITY-INLET 2306      81  220/ 13/ 16   N/A
WACHAPREAGUE VA  2306      86  210/ 12/ 16   N/A
THOMAS POINT MD  0000   86 82  210/ 13/ 14 1013.4F
GOOSES REEF MD   2300   89 85  230/  8/ 10 1013.5F   1
COVE POINT MD    2300          250/ 11/ 14   N/A
SOLOMONS ISLAND  2306      84  230/  8/ 12   N/A
BISHOPS HEAD MD  2306      87  190/  9/ 10   N/A
PINEY POINT MD   2300          270/  5/  6   N/A
POTOMAC MD       2300   87 87  170/  4/  4 1011.7F   1/ 3
CAMBRIDGE MD     2306      86  200/  5/  7   N/A
LEWISETTA VA     2306      84  240/  5/  8   N/A
RAPPAHANNOCK LGT 2300          200/ 10/ 10   N/A
STINGRAY PT      2300   88 84  160/  8/ 10 1013.7F   1/ 3
YORK RVR RNG VA  2300          240/ 13/ 15   N/A
YORKTOWN VA      2306      84  230/  8/ 10   N/A
JAMESTOWN VA     2300   89 87  200/  6/ 10   N/A
DOMINION TERM VA 2300          230/ 12/ 14   N/A
KIPTOPEKE VA     2306      84  200/  7/  8   N/A
CHES BAY BRIDGE  2306      83  200/ 14/ 15   N/A
CAPE HENRY VA    2300          200/  8/ 10   N/A
WILLOUBY STN VA  2300          220/ 15/ 16   N/A
CAPE HENRY BUOY  2312      82                N/A     3/ 4
1ST LANDING BUOY 2300   86 83  190/ 10/ 14 1013.2F
CAPE CHARLES BUO 2326      69                N/A     3/ 9
OFFSHORE WE BUOY 2321      83                N/A     4/ 4
64NM E OF VA BCH 2350   81 81  200/ 16/ 19 1014.7F   3/ 4   2/ 8
DUCK PIER NC     2306      77  190/ 13/ 17   N/A
44100 DUCK FRF   2305      81                N/A     3/ 8
44056 DUCK FRF   2311      82                N/A     2/ 9
OREGON INLET NC  2306      84  190/ 14/ 17   N/A
HATTERAS NC      2306      84  190/  5/  7   N/A
DIAMOND SHLS NC  2350   83 86  200/ 10/ 12 1016.3F   2/ 8   2/ 8
CAPE LOOKOUT NC  0000   82     210/  5/  6 1016.2S
$$




USA.gov is the U.S. government's official web portal to all federal, state and local government web resources and services.